Regional Weather Roundup
Issued by NWS Upton, NY

Current Version | Previous Version | Graphics & Text | Print | Product List | Glossary Off
Versions: 1 2 3 4 5 6 7 8 9 10 11 12 13 14 15 16 17 18 19 20 21 22 23 24 25 26 27 28 29 30 31 32 33 34 35 36 37 38 39 40 41 42 43 44 45 46 47 48 49 50

000
ASUS41 KOKX 181807
RWROKX

REGIONAL WEATHER ROUNDUP
NATIONAL WEATHER SERVICE NEW YORK NY
200 PM EDT SAT APR 18 2015

NOTE: "FAIR" INDICATES FEW OR NO CLOUDS BELOW 12,000 FEET WITH NO
SIGNIFICANT WEATHER AND/OR OBSTRUCTIONS TO VISIBILITY.

NYZ071-072-176-178-NJZ106-104-181900-
NEW YORK CITY METRO AREA


CITY           SKY/WX    TMP DP  RH WIND       PRES   REMARKS
CENTRAL PARK   MOSUNNY   77  37  23 CALM      29.93F
LAGUARDIA APRT PTSUNNY   75  37  25 NW6G16    29.91F
KENNEDY INTL   PTSUNNY   70  44  39 S13       29.93F
NEWARK/LIBERTY PTSUNNY   78  39  24 NW9       29.91F
BRNX BOT. GARD   N/A     75  37  25 S12       29.93S
TETERBORO      MOSUNNY   78  42  27 VRB6      29.89F
$$

NYZ177-179-078>081-181900-
LONG ISLAND NEW YORK

CITY           SKY/WX    TMP DP  RH WIND       PRES   REMARKS
FARMINGDALE    MOSUNNY   74  41  30 NW6G17    29.92F
ISLIP          PTSUNNY   75  40  28 W8        29.90F
SHIRLEY        MOSUNNY   72  44  36 SW10      29.92F
WESTHAMPTON    MOSUNNY   70  45  40 SW10G21   29.93F
MONTAUK POINT    N/A     67  46  47 S12       29.91F
$$

NYZ052-065-067-181900-
HUDSON VALLEY

CITY           SKY/WX    TMP DP  RH WIND       PRES   REMARKS
WHITE PLAINS   MOSUNNY   75  40  28 W9G17     29.90F
NEWBURGH       MOSUNNY   75  45  33 NW14G25   29.90F
MONTGOMERY     MOSUNNY   78  39  24 SW22G31   29.88F
POUGHKEEPSIE   MOSUNNY   78  41  26 W15G22    29.87F
ALBANY         PTSUNNY   71  40  32 N7        29.85F
$$

NJZ001-105-106-008-010-013-015-019>022-104-181900-
NEW JERSEY

CITY           SKY/WX    TMP DP  RH WIND       PRES   REMARKS
NEWARK/LIBERTY PTSUNNY   78  39  24 NW9       29.91F
TETERBORO      MOSUNNY   78  42  27 VRB6      29.89F
CALDWELL       MOSUNNY   76  39  26 W12G18    29.91F
MORRISTOWN     MOSUNNY   75  41  29 W3G14     29.92F
SOMERVILLE     MOSUNNY   77  41  27 VRB7      29.91F
SUSSEX         MOSUNNY   77  37  23 W10G22    29.91F
ANDOVER          N/A     76  38  25 VRB6      29.91F
TRENTON        MOSUNNY   77  39  25 VRB6      29.94F
MILLVILLE      MOSUNNY   77  42  28 W7        29.96F
ATLANTIC CITY  SUNNY     71  45  39 S10       29.97F
WRIGHTSTOWN    SUNNY     77  38  24 NW8       29.91F
TOMS RIVER     MOSUNNY   77  36  22 W6        29.94F
BELMAR         MOSUNNY   77  41  27 W9        29.94F
$$

PAZ047>061-062-071-181900-
EASTERN PENNSYLVANIA

CITY           SKY/WX    TMP DP  RH WIND       PRES   REMARKS
PHILADELPHIA   PTSUNNY   78  32  18 W9        29.95F
ALLENTOWN      MOSUNNY   78  42  27 VRB7      29.93F
SCRANTON       MOSUNNY   74  40  29 SW10      29.92F
$$

CTZ002-004>006-009-010-012-RIZ004-006-007-MAZ004-011-015-181900-
SOUTHERN NEW ENGLAND
 IN CT

CITY           SKY/WX    TMP DP  RH WIND       PRES   REMARKS
BRADLEY INTL   MOSUNNY   74  40  29 N8        29.86F
HARTFORD       MOSUNNY   73  39  29 SW13      29.86F
DANBURY        SUNNY     73  40  30 VRB7      29.90F
WTRBRY/OXFORD  MOSUNNY   72  43  35 W8G21     29.91F
BRIDGEPORT     SUNNY     70  43  37 S15       29.90F
MERIDEN        SUNNY     75  37  25 W7        29.87F
NEW HAVEN      SUNNY     66  44  45 SW14G22   29.89F
CHESTER        FAIR      72  45  37 SW10      29.89F
GROTON         SUNNY     66  45  46 SW16      29.88F
WILLIMANTIC    SUNNY     73  38  27 W7G16     29.87F

 IN RI

CITY           SKY/WX    TMP DP  RH WIND       PRES   REMARKS
PROVIDENCE     MOSUNNY   68  44  42 SE15      29.87S
BLOCK ISLAND   SUNNY     64  45  48 SW14      29.91F
WESTERLY       SUNNY     65  45  48 SW9       29.89F

 IN MA

CITY           SKY/WX    TMP DP  RH WIND       PRES   REMARKS
BOSTON         MOSUNNY   50  40  68 E15       29.90F
WORCESTER      MOSUNNY   69  35  28 W12G26    29.87F
WESTFIELD      PTSUNNY   75  38  26 W14       29.85F
PROVINCETOWN   SUNNY     55  43  62 E13       29.90S
NANTUCKET      SUNNY     59  45  59 SW13      29.91F
$$

ANZ330-335-338-340-345-350-353-355-181900-
COASTAL MARINE OBSERVATIONS


STATION/POSITION TIME  SKY/WX   TEMP    WIND        PRES    VSBY  WAVE
                                AIR SEA DIR/SP/G                  HT/PER
                 (UTC)          (F)     (DEG/KT/KT) (MB)    (MI)  (FT/S)
NY HARB ENTRANCE 1750            55 51  190/  8/ 10 1013.9          2/13
4S FIRE IS       1703               46                N/A           3/ 8
20S FIRE ISLAND  1650               47              1015.6          3/ 7
23SW MTP         NOT AVBL
HUDSON CANYON    NOT AVBL
EXECUTION ROCKS  NOT AVBL
WESTERN LI SOUND NOT AVBL
CENTRAL LI SOUND NOT AVBL
EASTERN LI SOUND 1700            46     240/  8/ 12   N/A
ROBBINS REEF     1700            69     150/ 11/ 12 1012.7
$$


>>>>>>>>>>>>>>>>>>>>>>>>>>>> KEY <<<<<<<<<<<<<<<<<<<<<<<<<<<
>                                                          <
>     SKY/WX - SKY CONDITION/PRESENT WEATHER               <
>     TMP    - TEMPERATURE IN FAHRENHEIT                   <
>     DP     - DEWPOINT IN FAHRENHEIT                      <
>     RH     - RELATIVE HUMIDITY IN PERCENT                <
>     WIND   - DIRECTION AND SPEED IN MPH                  <
>     PRES   - MEAN SEA LEVEL PRESSURE IN INCHES OF HG     <
>     WCI    - WIND CHILL INDEX                            <
>     VSB    - VISIBILITY IN MILES                         <
>     HX     - HEAT INDEX                                  <
>     TC     - TEMPERATURE IN CELSIUS                      <
>     VRB    - VARIABLE WIND DIRECTION                     <
>                                                          <
>>>>>>>>>>>>>>>>>>>>>>>>>>>> KEY <<<<<<<<<<<<<<<<<<<<<<<<<<<




USA.gov is the U.S. government's official web portal to all federal, state and local government web resources and services.